Вернуться в каталог

COSMOS 1275 DEB

АктивенPO
NORAD 13490·DEBRIS·🇷🇺 Russia

Запущен Jun 4, 1981 с Plesetsk Cosmodrome

Loading…

Ближайшие Пролёты (ближайшие 24 часа)

TLE

СвежийSource: Space-Track

Эпоха: Sep 14, 2026, 09:59 UTC

1 13490U 81053GL  26257.41600197  .00000258  00000-0  24035-3 0  9996
2 13490  82.8352  39.2681 0065068 200.7308 184.3783 13.77619502221461

Отслеживайте COSMOS 1275 DEB в реальном времени с AllMySat

Download on the App Store